[[{"header":{"parameterUnit":"m.s-1","parameterCategory":1,"la1":30.2991,"la2":30.254,"lo1":-89.0895,"lo2":-89.0444,"dy":0.0017,"dx":0.0017,"nx":28,"ny":28,"refTime":"2024-03-22T21:00:00:Z","depth":0,"parameterNumber":2,"parameterNumberName":"U-component_of_WINDS"},"data":[0,0,0,0,0,0,0,0,0,0,0,0,0,0,0,0,0,0,0,0,0,0,0,0,0,0,0,0,0,0,0,0,0,0,0,0,0,0,0,0,0,0,0,0,0,0,0,0,0,0,0,0,0,0,0,0,0,0,-3.1242,-3.1242,0,-3.1313,-3.1314,-3.1315,-3.1213,-3.1209,-3.1206,-3.1202,-3.1279,-3.1284,-3.1289,0,0,0,0,0,0,0,0,0,0,0,0,0,-3.1017,-3.1022,-3.1242,-3.1242,-3.1243,-3.1313,-3.1314,-3.1315,-3.1213,-3.1209,-3.1205,-3.12,-3.1277,-3.1283,-3.129,0,0,0,0,0,0,0,0,0,0,0,0,0,-3.1104,-3.1023,-3.1241,-3.1201,-3.1198,-3.1313,-3.1314,-3.1316,-3.1214,-3.1209,-3.1203,-3.1198,-3.1275,-3.1283,-3.1291,-3.145,0,0,-3.1315,-3.1319,0,0,0,0,0,0,0,0,-3.11,-3.1113,-3.1206,-3.1204,-3.1201,-3.1248,-3.1263,-3.1361,-3.1216,-3.1208,-3.1202,-3.1196,-3.1273,-3.1281,-3.1307,-3.1453,-3.1456,-3.1316,-3.1321,-3.1325,-3.1327,0,0,0,0,0,0,0,-3.1094,-3.1109,-3.127,-3.1207,-3.1204,-3.1179,-3.1186,-3.1281,-3.1271,-3.1209,-3.1201,-3.1211,-3.1271,-3.1299,-3.1308,-3.1458,-3.1316,-3.1323,-3.1328,-3.1331,-3.1736,-3.1742,0,0,0,0,0,0,-3.1092,-3.1105,-3.1268,-3.1272,-3.1136,-3.1188,-3.1195,-3.1239,-3.1269,-3.1268,-3.1216,-3.1206,-3.1288,-3.1298,-3.131,-3.1498,-3.1324,-3.1332,-3.1337,-3.1731,-3.1738,-3.1744,0,0,0,0,0,0,-3.1088,-3.1108,-3.1265,-3.1186,-3.1204,-3.1197,-3.1247,-3.1243,-3.1271,-3.1274,-3.1272,-3.1246,-3.1284,-3.1298,-3.1415,-3.1499,-3.1336,-3.1343,-3.1724,-3.1733,-3.1741,-3.1875,0,0,0,0,0,0,-3.1082,-3.1107,-3.1167,-3.1189,-3.1209,-3.1369,-3.1253,-3.1248,-3.1285,-3.1273,-3.1303,-3.1302,-3.1281,-3.1403,-3.1423,-3.1507,-3.1349,-3.1716,-3.1728,-3.1738,-3.1863,-3.1887,-3.1908,0,0,0,0,0,-3.1074,-3.1203,-3.1171,-3.1191,-3.1285,-3.1374,-3.1386,-3.1358,-3.1292,-3.1353,-3.1355,-3.1302,-3.1486,-3.1416,-3.1438,-3.1525,-3.1711,-3.1724,-3.1737,-3.1853,-3.1882,-3.1907,0,0,0,0,0,0,-3.1194,-3.1205,-3.117,-3.1309,-3.1341,-3.1357,-3.1433,-3.139,-3.1442,-3.1429,-3.1392,-3.14,-3.1524,-3.1536,-3.1458,-3.168,-3.1587,-3.1606,-3.1668,-3.1696,-3.1718,-3.1714,-3.1356,0,0,0,0,0,-3.1236,-3.1307,-3.1313,-3.1436,-3.1454,-3.1441,-3.1479,-3.1454,-3.1486,-3.1499,-3.1509,-3.1543,-3.1608,-3.1653,-3.1713,-3.1863,-3.1868,-3.1934,-3.1956,-3.1974,-3.1991,-3.2071,-3.21,-3.1788,-3.1787,-3.1787,0,0,-3.1325,-3.134,-3.1387,-3.146,-3.1482,-3.1557,-3.1453,-3.1537,-3.1592,-3.1512,-3.1623,-3.1631,-3.1666,-3.18,-3.186,-3.1814,-3.2078,-3.1991,-3.2006,-3.2013,-3.2087,-3.2117,-3.2143,-3.1797,-3.1795,-3.1793,0,0,-3.1525,-3.1543,-3.1647,-3.167,-3.1704,-3.1694,-3.1719,-3.174,-3.1742,-3.1852,-3.1793,-3.1858,-3.1972,-3.1999,-3.2028,-3.2235,-3.2188,-3.2255,-3.2374,-3.2451,-3.2476,-3.2498,-3.2572,-3.2599,-3.2272,-3.2272,-3.2272,0,-3.1632,-3.1742,-3.1706,-3.1794,-3.1828,-3.1756,-3.1861,-3.1885,-3.1938,-3.1963,-3.191,-3.2049,-3.2068,-3.2207,-3.2257,-3.2283,-3.231,-3.2253,-3.2475,-3.2497,-3.2516,-3.2587,-3.2615,-3.228,-3.2279,-3.2278,-3.2277,0,-3.1871,-3.1948,-3.2028,-3.2078,-3.2121,-3.2217,-3.2196,-3.2243,-3.2213,-3.2208,-3.232,-3.234,-3.2402,-3.2433,-3.2406,-3.2568,-3.2538,-3.2481,-3.2388,-3.2555,-3.262,-3.2647,-3.2291,-3.2289,-3.2286,-3.2284,0,0,-3.2152,-3.2179,-3.2209,-3.2231,-3.2261,-3.232,-3.2412,-3.2472,-3.2513,-3.255,-3.2627,-3.2723,-3.2669,-3.2702,-3.2677,-3.2745,-3.2907,-3.2679,-3.2679,-3.2721,-3.3087,-3.3131,-3.3163,-3.2875,-3.288,-3.2884,-3.3084,0,-3.2352,-3.251,-3.248,-3.2635,-3.2705,-3.2637,-3.2716,-3.2744,-3.2741,-3.2801,-3.2797,-3.2866,-3.2791,-3.281,-3.2874,-3.2874,-3.2981,-3.2859,-3.2947,-3.295,-3.2942,-3.3197,-3.3244,-3.3432,-3.3109,-3.3114,-3.3117,0,-3.2608,-3.2653,-3.2815,-3.2832,-3.2861,-3.2933,-3.2984,-3.3042,-3.3071,-3.3064,-3.3099,-3.306,-3.3151,-3.3055,-3.318,-3.3098,-3.3131,-3.3137,-3.3143,-3.3152,-3.3045,-3.3213,-3.3491,-3.352,-3.3157,-3.3154,-3.3151,0,-3.2797,-3.2898,-3.3008,-3.3028,-3.3051,-3.3104,-3.3116,-3.3139,-3.3176,-3.3221,-3.3245,-3.33,-3.333,-3.3374,-3.335,-3.3283,-3.348,-3.3382,-3.3477,-3.3478,-3.3524,-3.3522,-3.3812,-3.3543,-3.3543,-3.3542,-3.3542,0,-3.3025,-3.3127,-3.3093,-3.3161,-3.3272,-3.3235,-3.3347,-3.335,-3.3371,-3.3438,-3.3382,-3.3447,-3.3411,-3.3472,-3.3455,-3.3561,-3.3575,-3.3572,-3.3567,-3.3578,-3.3579,-3.3601,-3.3588,-3.355,-3.3548,-3.3547,-3.3545,0,-3.3257,-3.3238,-3.3353,-3.3364,-3.3369,-3.3451,-3.346,-3.3523,-3.3515,-3.36,-3.3618,-3.3606,-3.3675,-3.3655,-3.3731,-3.3718,-3.3853,-3.383,-3.3843,-3.3838,-3.3935,-3.3926,-3.4251,-3.4292,-3.3996,-3.3999,-3.4001,0,-3.3404,-3.348,-3.3499,-3.3539,-3.3555,-3.3621,-3.3658,-3.3623,-3.3664,-3.3701,-3.376,-3.3823,-3.3873,-3.3986,-3.3984,-3.4041,-3.402,-3.413,-3.4028,-3.4037,-3.4022,-3.4019,-3.4026,-3.4151,-3.4154,-3.4157,-3.4159,0,-3.3668,-3.3654,-3.3709,-3.3761,-3.3806,-3.3845,-3.388,-3.3916,-3.3883,-3.3932,-3.4001,-3.4039,-3.4115,-3.4179,-3.423,-3.4242,-3.4196,-3.419,-3.4216,-3.4229,-3.4234,-3.4233,-3.39,-3.4184,-3.4181,-3.418,-3.4178,-3.4177,-3.3863,-3.3927,-3.3949,-3.4012,-3.4033,-3.4066,-3.4125,-3.4123,-3.418,-3.4238,-3.4214,-3.4294,-3.4318,-3.4382,-3.4401,-3.4463,-3.4421,-3.4457,-3.4467,-3.4477,-3.4489,-3.4223,-3.4472,-3.4471,-3.447,-3.447,-3.4469,0,-3.4124,-3.4134,-3.4192,-3.4241,-3.429,-3.4239,-3.4274,-3.4319,-3.4389,-3.4416,-3.4464,-3.4543,-3.4604,-3.4606,-3.4663,-3.4712,-3.4692,-3.4728,-3.4725,-3.4728,-3.4523,-3.4496,-3.4743,-3.4743,-3.4743,-3.4743,-3.4743,-3.4743,-3.4266,-3.4372,-3.436,-3.4475,-3.4485,-3.4562,-3.4586,-3.4615,-3.4636,-3.4726,-3.4776,-3.4776,-3.4792,-3.4849,-3.4903,-3.4902,-3.4926,-3.497,-3.4961,-3.477,-3.4743,-3.4717,-3.4691,-3.4976,-3.4976,-3.5161,-3.5163,-3.5164]},{"header":{"parameterUnit":"m.s-1","parameterCategory":1,"la1":30.2991,"la2":30.254,"lo1":-89.0895,"lo2":-89.0444,"dy":0.0017,"dx":0.0017,"nx":28,"ny":28,"refTime":"2024-03-22T21:00:00:Z","depth":0,"parameterNumber":3,"parameterNumberName":"V-component_of_WINDS"},"data":[0,0,0,0,0,0,0,0,0,0,0,0,0,0,0,0,0,0,0,0,0,0,0,0,0,0,0,0,0,0,0,0,0,0,0,0,0,0,0,0,0,0,0,0,0,0,0,0,0,0,0,0,0,0,0,0,0,0,-3.6303,-3.6304,0,-3.6391,-3.6392,-3.6393,-3.635,-3.6348,-3.6345,-3.6343,-3.6432,-3.6436,-3.6441,0,0,0,0,0,0,0,0,0,0,0,0,0,-3.6094,-3.6098,-3.6302,-3.6304,-3.6305,-3.639,-3.6392,-3.6393,-3.635,-3.6348,-3.6345,-3.6342,-3.6431,-3.6436,-3.6441,0,0,0,0,0,0,0,0,0,0,0,0,0,-3.6184,-3.61,-3.6302,-3.6294,-3.6294,-3.639,-3.6392,-3.6393,-3.6351,-3.6348,-3.6344,-3.6341,-3.6429,-3.6435,-3.6442,-3.6551,0,0,-3.6462,-3.6465,0,0,0,0,0,0,0,0,-3.6179,-3.6191,-3.6294,-3.6295,-3.6295,-3.6356,-3.6351,-3.6446,-3.6352,-3.6329,-3.6343,-3.6339,-3.6409,-3.6417,-3.6441,-3.6555,-3.6559,-3.6463,-3.6467,-3.647,-3.6472,0,0,0,0,0,0,0,-3.6173,-3.6187,-3.6337,-3.6296,-3.6296,-3.6285,-3.6294,-3.6369,-3.6387,-3.6331,-3.6328,-3.6339,-3.6409,-3.6435,-3.6443,-3.656,-3.6463,-3.6469,-3.6473,-3.6475,-3.6765,-3.6769,0,0,0,0,0,0,-3.6167,-3.6183,-3.6334,-3.634,-3.6227,-3.6291,-3.6301,-3.634,-3.6386,-3.639,-3.6342,-3.6337,-3.6425,-3.6435,-3.6446,-3.6575,-3.647,-3.6476,-3.648,-3.6762,-3.6766,-3.677,0,0,0,0,0,0,-3.6163,-3.6181,-3.6331,-3.626,-3.6279,-3.6298,-3.6342,-3.6343,-3.6369,-3.6395,-3.6397,-3.6365,-3.6423,-3.6437,-3.6525,-3.6578,-3.6479,-3.6485,-3.6757,-3.6763,-3.6768,-3.6836,0,0,0,0,0,0,-3.6157,-3.618,-3.6222,-3.6262,-3.6283,-3.641,-3.6345,-3.6347,-3.6381,-3.6375,-3.6417,-3.6421,-3.6421,-3.6515,-3.6531,-3.6585,-3.649,-3.6753,-3.676,-3.6766,-3.6829,-3.6843,-3.6855,0,0,0,0,0,-3.615,-3.6238,-3.6225,-3.6243,-3.6336,-3.6413,-3.6424,-3.6423,-3.6386,-3.6428,-3.6444,-3.642,-3.6569,-3.6524,-3.6543,-3.6599,-3.6749,-3.6758,-3.6766,-3.6823,-3.6841,-3.6855,0,0,0,0,0,0,-3.6205,-3.6243,-3.6229,-3.6333,-3.637,-3.6405,-3.6459,-3.6442,-3.649,-3.6483,-3.6478,-3.6488,-3.6579,-3.6598,-3.6547,-3.6706,-3.6653,-3.6666,-3.6691,-3.6707,-3.672,-3.6714,-3.6496,0,0,0,0,0,-3.6229,-3.6288,-3.6319,-3.6407,-3.6427,-3.644,-3.6473,-3.6469,-3.6506,-3.6522,-3.6544,-3.6581,-3.6636,-3.6673,-3.6725,-3.6831,-3.6839,-3.6879,-3.6892,-3.6903,-3.6913,-3.6969,-3.6987,-3.6797,-3.6797,-3.6797,0,0,-3.628,-3.6308,-3.6346,-3.6419,-3.6447,-3.6508,-3.6453,-3.652,-3.6564,-3.6532,-3.6616,-3.6634,-3.6674,-3.6772,-3.6816,-3.679,-3.6967,-3.6913,-3.6921,-3.6927,-3.698,-3.6997,-3.7013,-3.6803,-3.6802,-3.6801,0,0,-3.6403,-3.6431,-3.6507,-3.6536,-3.6579,-3.6587,-3.6605,-3.6643,-3.6653,-3.6738,-3.6714,-3.6766,-3.6862,-3.6891,-3.6919,-3.7051,-3.703,-3.7068,-3.7136,-3.719,-3.7205,-3.7218,-3.7265,-3.7281,-3.7078,-3.7078,-3.7078,0,-3.6461,-3.6552,-3.6549,-3.6617,-3.6649,-3.6622,-3.6698,-3.6726,-3.6784,-3.6806,-3.6776,-3.6894,-3.692,-3.7023,-3.7055,-3.7078,-3.7098,-3.7063,-3.7204,-3.7217,-3.7229,-3.7273,-3.729,-3.7083,-3.7082,-3.7082,-3.7081,0,-3.662,-3.6683,-3.6739,-3.6796,-3.6834,-3.6906,-3.6912,-3.6951,-3.6943,-3.6953,-3.7038,-3.7068,-3.7125,-3.7149,-3.7142,-3.725,-3.7233,-3.7204,-3.7151,-3.7251,-3.7292,-3.7309,-3.7089,-3.7087,-3.7086,-3.7085,0,0,-3.6782,-3.6834,-3.6855,-3.6879,-3.6923,-3.6972,-3.7041,-3.7097,-3.713,-3.717,-3.7227,-3.7308,-3.728,-3.7311,-3.7307,-3.7355,-3.7455,-3.7319,-3.732,-3.7343,-3.7575,-3.7597,-3.7617,-3.7442,-3.7445,-3.7447,-3.7572,0,-3.6908,-3.7031,-3.7029,-3.7143,-3.72,-3.7173,-3.7234,-3.7267,-3.7278,-3.7327,-3.7338,-3.7395,-3.7355,-3.7373,-3.7419,-3.7434,-3.7502,-3.7424,-3.7494,-3.7497,-3.7485,-3.7638,-3.7662,-3.7778,-3.7588,-3.7591,-3.7593,0,-3.7072,-3.7117,-3.7237,-3.727,-3.7294,-3.7349,-3.7399,-3.7446,-3.7482,-3.7486,-3.752,-3.7508,-3.7577,-3.7521,-3.7616,-3.7563,-3.7591,-3.7602,-3.7606,-3.7613,-3.7551,-3.7649,-3.7815,-3.7833,-3.7618,-3.7616,-3.7614,0,-3.7178,-3.7268,-3.7351,-3.7372,-3.7414,-3.7453,-3.7472,-3.7504,-3.7537,-3.758,-3.7601,-3.7652,-3.7679,-3.7718,-3.7718,-3.7678,-3.7813,-3.7758,-3.7818,-3.7818,-3.7848,-3.7846,-3.8022,-3.7867,-3.7866,-3.7866,-3.7866,0,-3.7319,-3.7392,-3.7398,-3.7449,-3.753,-3.7526,-3.7606,-3.7621,-3.765,-3.7702,-3.7682,-3.7731,-3.7729,-3.7779,-3.778,-3.7857,-3.7869,-3.7874,-3.7873,-3.7876,-3.7875,-3.7895,-3.7886,-3.7871,-3.787,-3.7869,-3.7868,0,-3.7451,-3.7458,-3.7546,-3.7577,-3.7587,-3.7645,-3.7672,-3.7719,-3.7727,-3.7794,-3.7809,-3.7822,-3.7879,-3.7883,-3.7949,-3.7949,-3.8043,-3.8033,-3.8031,-3.8029,-3.8088,-3.8083,-3.8282,-3.8307,-3.8136,-3.8138,-3.8139,0,-3.754,-3.7596,-3.7634,-3.7667,-3.7688,-3.7743,-3.7776,-3.7773,-3.7808,-3.7852,-3.7894,-3.7949,-3.7993,-3.8085,-3.8099,-3.8149,-3.8141,-3.8207,-3.8148,-3.8148,-3.8141,-3.8138,-3.8143,-3.8219,-3.8221,-3.8222,-3.8223,0,-3.7698,-3.7698,-3.7747,-3.7797,-3.7837,-3.7876,-3.7912,-3.794,-3.7942,-3.7982,-3.804,-3.8074,-3.8141,-3.8195,-3.8243,-3.8261,-3.8243,-3.8242,-3.8258,-3.8261,-3.8257,-3.8259,-3.8062,-3.8237,-3.8236,-3.8235,-3.8234,-3.8234,-3.7811,-3.7859,-3.7892,-3.7947,-3.7974,-3.8007,-3.8053,-3.8066,-3.8115,-3.8169,-3.8164,-3.8228,-3.826,-3.8323,-3.8345,-3.8394,-3.8371,-3.8395,-3.8401,-3.8407,-3.8413,-3.8249,-3.8403,-3.8402,-3.8402,-3.8402,-3.8401,0,-3.7968,-3.7987,-3.8037,-3.8088,-3.8131,-3.8109,-3.8147,-3.8184,-3.824,-3.8272,-3.8315,-3.8381,-3.8433,-3.8451,-3.8501,-3.8537,-3.8529,-3.855,-3.8547,-3.8552,-3.8431,-3.8412,-3.8555,-3.8555,-3.8555,-3.8555,-3.8555,-3.8555,-3.8054,-3.8133,-3.8137,-3.8228,-3.8247,-3.831,-3.8333,-3.8364,-3.8389,-3.8463,-3.8506,-3.8517,-3.8543,-3.8595,-3.8641,-3.8645,-3.8664,-3.8688,-3.8689,-3.8576,-3.856,-3.8546,-3.8527,-3.8693,-3.8693,-3.8805,-3.8806,-3.8807]}]]